Satellite-Ground Cal/Val Site Overpasses Predictions

Prediction of Satellite NPP Overpassing Cal/Val Site: Antarctic Dome C

Ground Cal/Val Site Location: Latitude: -75.10, Longitude: 123.35; Satellite-Ground Site NADIR distance within 100 km.

Table of predicted overpasses for the next 14.0 days since TLE Epoch: 1/15/2022
Interval Starting Time Ending Time Minimum Distance Time Minimum Distance (km)
1 01/16/2022 15:01:45 01/16/2022 15:02:08 01/16/2022 15:01:57 57.81
2 01/17/2022 14:42:54 01/17/2022 14:43:19 01/17/2022 14:43:06 51.51
3 01/18/2022 07:44:34 01/18/2022 07:44:54 01/18/2022 07:44:44 72.37
4 01/19/2022 07:25:39 01/19/2022 07:26:07 01/19/2022 07:25:53 35.61
5 01/21/2022 15:08:02 01/21/2022 15:08:11 01/21/2022 15:08:06 94.94
6 01/22/2022 14:49:01 01/22/2022 14:49:30 01/22/2022 14:49:15 16.66
7 01/24/2022 07:31:48 01/24/2022 07:32:17 01/24/2022 07:32:02 2.46
8 01/27/2022 14:55:09 01/27/2022 14:55:38 01/27/2022 14:55:24 19.45
